Location: Marcé
(47.5801°N, 0.3280°W)
Time: 15:14:30
(UTC+01:00)

Vanguard 1 - Pass Details

Date: 03 December 2021
Orbit: 652 x 3830 km, 34.2° (Epoch: 19 January)

Event Time Altitude Azimuth Distance (km) Brightness Sun altitude
Rises 03:29:17 0° 256° (WSW) 7,843 - -49.4°
Reaches altitude 10° 03:34:42 10° 253° (WSW) 6,916 - -48.6°
Exits shadow 03:56:34 54° 187° (S) 3,868 12.7 -45.2°
Maximum altitude 03:56:51 54° 184° (S) 3,853 12.7 -45.1°
Drops below altitude 10° 04:12:31 10° 113° (ESE) 5,082 14.1 -42.6°
Sets 04:15:47 0° 109° (ESE) 5,737 14.6 -42.0°
